• In India
  • List of Countries
  • For 7 days
  • Water Temperature
  • Satellite Maps
  • Weather Map
  • Weather Widgets
  • user-avatar
    Login

    Hourly Weather Zalyp'ya

    Today, 18 January, Friday

    Time Temperature Precipitation Wind Pressure Humidity
    00:00 +1°C° 0 mm 3 mps 728 mmHg 82%
    01:00 +1°C° 0 mm 3 mps 728 mmHg 83%
    02:00 +2°C° 0 mm 1 mps 727 mmHg 86%
    03:00 +3°C° 0.2 mm 1 mps 727 mmHg 87%
    04:00 +3°C° 0.2 mm 1 mps 727 mmHg 89%
    05:00 +2°C° 0.2 mm 2 mps 727 mmHg 91%
    06:00 +3°C° 0.5 mm 1 mps 727 mmHg 92%
    07:00 +3°C° 0.5 mm 1 mps 727 mmHg 93%
    08:00 +2°C° 0 mm 2 mps 727 mmHg 94%
    09:00 +2°C° 0.8 mm 2 mps 728 mmHg 96%
    10:00 +2°C° 0.8 mm 2 mps 728 mmHg 97%
    11:00 +2°C° 0.8 mm 2 mps 728 mmHg 99%
    12:00 0°C° 0.3 mm 3 mps 729 mmHg 99%
    13:00 0°C° 0.3 mm 3 mps 729 mmHg 98%
    14:00 0°C° 0 mm 3 mps 729 mmHg 99%
    15:00 0°C° 0.1 mm 3 mps 730 mmHg 95%
    16:00 -1°C° 0.1 mm 4 mps 730 mmHg 92%
    17:00 -2°C° 0.1 mm 4 mps 731 mmHg 88%
    18:00 -2°C° 0.1 mm 4 mps 732 mmHg 89%
    19:00 -3°C° 0.1 mm 4 mps 732 mmHg 91%
    20:00 -3°C° 0.1 mm 4 mps 733 mmHg 92%
    21:00 -3°C° 0.1 mm 4 mps 733 mmHg 92%
    22:00 -3°C° 0.1 mm 4 mps 734 mmHg 92%
    23:00 -4°C° 0.1 mm 4 mps 735 mmHg 93%

    Tomorrow, 19 January, Saturday

    Time Temperature Precipitation Wind Pressure Humidity
    00:00 -5°C° 0 mm 3 mps 735 mmHg 93%
    01:00 -6°C° 0 mm 3 mps 736 mmHg 94%
    02:00 -7°C° 0 mm 3 mps 736 mmHg 94%
    03:00 -7°C° 0 mm 3 mps 736 mmHg 94%
    04:00 -7°C° 0 mm 2 mps 737 mmHg 95%
    05:00 -7°C° 0 mm 2 mps 737 mmHg 95%
    06:00 -7°C° 0 mm 2 mps 737 mmHg 95%
    07:00 -7°C° 0 mm 2 mps 738 mmHg 95%
    08:00 -7°C° 0 mm 2 mps 738 mmHg 96%
    09:00 -6°C° 0 mm 2 mps 738 mmHg 94%
    10:00 -5°C° 0 mm 2 mps 738 mmHg 93%
    11:00 -3°C° 0 mm 1 mps 739 mmHg 91%
    12:00 -2°C° 0 mm 1 mps 738 mmHg 89%
    13:00 -2°C° 0 mm 1 mps 738 mmHg 86%
    14:00 -1°C° 0 mm 1 mps 738 mmHg 84%
    15:00 -2°C° 0 mm 1 mps 738 mmHg 86%
    16:00 -3°C° 0 mm 1 mps 738 mmHg 88%
    17:00 -4°C° 0 mm 1 mps 738 mmHg 90%
    18:00 -4°C° 0 mm 1 mps 738 mmHg 90%
    19:00 -6°C° 0 mm 1 mps 738 mmHg 91%
    20:00 -7°C° 0 mm 2 mps 738 mmHg 91%
    21:00 -7°C° 0 mm 2 mps 738 mmHg 91%
    22:00 -8°C° 0 mm 2 mps 738 mmHg 91%
    23:00 -8°C° 0 mm 2 mps 738 mmHg 91%

    Day after tomorrow, 20 January, Sunday

    Time Temperature Precipitation Wind Pressure Humidity
    00:00 -8°C° 0 mm 2 mps 737 mmHg 92%
    01:00 -9°C° 0 mm 3 mps 737 mmHg 93%
    02:00 -9°C° 0 mm 3 mps 737 mmHg 94%
    03:00 -8°C° 0 mm 3 mps 736 mmHg 94%
    04:00 -8°C° 0 mm 3 mps 736 mmHg 94%
    05:00 -8°C° 0 mm 4 mps 736 mmHg 94%
    06:00 -7°C° 0 mm 3 mps 735 mmHg 94%
    07:00 -7°C° 0 mm 3 mps 735 mmHg 95%
    08:00 -7°C° 0 mm 3 mps 735 mmHg 95%
    09:00 -7°C° 0 mm 3 mps 735 mmHg 94%
    10:00 -5°C° 0 mm 2 mps 735 mmHg 94%
    11:00 -5°C° 0 mm 2 mps 735 mmHg 93%
    12:00 -5°C° 0 mm 2 mps 734 mmHg 92%
    13:00 -4°C° 0 mm 2 mps 734 mmHg 92%
    14:00 -2°C° 0 mm 1 mps 734 mmHg 91%
    15:00 -2°C° 0 mm 1 mps 733 mmHg 92%
    16:00 -2°C° 0 mm 1 mps 733 mmHg 93%
    17:00 -3°C° 0 mm 1 mps 733 mmHg 95%
    18:00 -3°C° 0.2 mm 1 mps 733 mmHg 95%
    19:00 -3°C° 0.2 mm 1 mps 734 mmHg 96%
    20:00 -3°C° 0.2 mm 1 mps 734 mmHg 96%
    21:00 -3°C° 0.3 mm 1 mps 734 mmHg 96%
    22:00 -3°C° 0.3 mm 1 mps 734 mmHg 96%
    23:00 -5°C° 0.3 mm 2 mps 735 mmHg 96%

    21 January, Monday

    Time Temperature Precipitation Wind Pressure Humidity
    00:00 -5°C° 0.1 mm 2 mps 735 mmHg 95%
    01:00 -5°C° 0.1 mm 2 mps 735 mmHg 95%
    02:00 -6°C° 0.1 mm 2 mps 735 mmHg 94%
    03:00 -6°C° 0 mm 2 mps 735 mmHg 94%
    04:00 -6°C° 0 mm 2 mps 736 mmHg 94%
    05:00 -6°C° 0 mm 2 mps 736 mmHg 94%
    06:00 -7°C° 0 mm 2 mps 736 mmHg 93%
    07:00 -7°C° 0 mm 2 mps 737 mmHg 93%
    08:00 -8°C° 0 mm 2 mps 737 mmHg 92%
    09:00 -7°C° 0 mm 2 mps 737 mmHg 92%
    10:00 -4°C° 0 mm 1 mps 738 mmHg 92%
    11:00 -3°C° 0 mm 1 mps 738 mmHg 92%
    12:00 -3°C° 0 mm 1 mps 738 mmHg 91%
    13:00 -2°C° 0 mm 1 mps 738 mmHg 91%
    14:00 -2°C° 0 mm 1 mps 738 mmHg 90%
    15:00 -2°C° 0 mm 1 mps 738 mmHg 90%
    16:00 -2°C° 0 mm 1 mps 738 mmHg 91%
    17:00 -3°C° 0 mm 1 mps 738 mmHg 91%
    18:00 -3°C° 0 mm 1 mps 739 mmHg 90%
    19:00 -4°C° 0 mm 0 mps 739 mmHg 89%
    20:00 -4°C° 0 mm 0 mps 739 mmHg 87%
    21:00 -5°C° 0 mm 0 mps 739 mmHg 88%
    22:00 -6°C° 0 mm 1 mps 739 mmHg 88%
    23:00 -7°C° 0 mm 1 mps 739 mmHg 88%

    22 January, Tuesday

    Time Temperature Precipitation Wind Pressure Humidity
    00:00 -7°C° 0 mm 1 mps 738 mmHg 89%
    01:00 -8°C° 0 mm 1 mps 738 mmHg 91%
    02:00 -8°C° 0 mm 1 mps 738 mmHg 93%
    03:00 -9°C° 0 mm 2 mps 737 mmHg 94%
    04:00 -9°C° 0 mm 2 mps 737 mmHg 96%
    05:00 -9°C° 0 mm 2 mps 736 mmHg 97%
    06:00 -9°C° 0 mm 2 mps 736 mmHg 97%
    07:00 -9°C° 0 mm 2 mps 736 mmHg 97%
    08:00 -10°C° 0 mm 3 mps 736 mmHg 97%
    09:00 -10°C° 0 mm 3 mps 736 mmHg 96%
    10:00 -9°C° 0 mm 3 mps 735 mmHg 95%
    11:00 -8°C° 0 mm 3 mps 735 mmHg 94%
    12:00 -8°C° 0 mm 3 mps 734 mmHg 94%
    13:00 -7°C° 0 mm 3 mps 734 mmHg 94%
    14:00 -7°C° 0 mm 3 mps 733 mmHg 94%
    15:00 -7°C° 0 mm 3 mps 733 mmHg 95%
    16:00 -8°C° 0 mm 3 mps 732 mmHg 95%
    17:00 -9°C° 0 mm 3 mps 732 mmHg 96%
    18:00 -9°C° 0 mm 3 mps 732 mmHg 96%
    19:00 -9°C° 0 mm 4 mps 731 mmHg 96%
    20:00 -9°C° 0 mm 4 mps 731 mmHg 96%
    21:00 -9°C° 0 mm 4 mps 731 mmHg 95%
    22:00 -9°C° 0 mm 4 mps 731 mmHg 94%
    23:00 -8°C° 0 mm 5 mps 730 mmHg 93%

    23 January, Wednesday

    Time Temperature Precipitation Wind Pressure Humidity
    00:00 -8°C° 0 mm 5 mps 730 mmHg 93%
    01:00 -8°C° 0 mm 5 mps 729 mmHg 93%
    02:00 -8°C° 0 mm 5 mps 729 mmHg 92%
    03:00 -8°C° 0 mm 5 mps 728 mmHg 92%
    04:00 -8°C° 0 mm 5 mps 727 mmHg 92%
    05:00 -8°C° 0 mm 5 mps 726 mmHg 92%
    06:00 -8°C° 0 mm 6 mps 726 mmHg 92%
    07:00 -8°C° 0 mm 6 mps 726 mmHg 92%
    08:00 -6°C° 0 mm 6 mps 725 mmHg 91%
    09:00 -6°C° 0 mm 7 mps 725 mmHg 91%
    10:00 -4°C° 0 mm 7 mps 724 mmHg 90%
    11:00 -3°C° 0 mm 7 mps 724 mmHg 90%
    12:00 -3°C° 0 mm 7 mps 723 mmHg 91%
    13:00 -2°C° 0 mm 8 mps 723 mmHg 91%
    14:00 -2°C° 0 mm 8 mps 722 mmHg 92%
    15:00 -2°C° 0.1 mm 8 mps 722 mmHg 91%
    16:00 -2°C° 0.1 mm 8 mps 722 mmHg 91%
    17:00 -3°C° 0.1 mm 9 mps 722 mmHg 90%
    18:00 -3°C° 0.1 mm 9 mps 722 mmHg 90%
    19:00 -2°C° 0.1 mm 8 mps 722 mmHg 90%
    20:00 -2°C° 0.1 mm 8 mps 722 mmHg 90%
    21:00 -2°C° 0 mm 8 mps 722 mmHg 90%
    22:00 -4°C° 0 mm 8 mps 722 mmHg 90%
    23:00 -3°C° 0 mm 7 mps 721 mmHg 90%
    Show more